This demonstration page uses our WeatherBlox Daily Observations layout. Learn more.

Left ArrowRight Arrow

Hourly Observations for July 19, 2018

Temp ( °F °C ) Dew Point ( °F °C ) Humidity (%) Winds ( mph kmh ) Pressure ( in mb ) Visibility ( mi km ) Precip ( " mm )
12:53 am 00:53 Mostly Clear with Light Rain 70 21.1 58 14.4 66 66 VRB 5 7 29.89 1012 10 16 0.00 0.03
1:53 am 01:53 Mostly Cloudy 69 20.6 60 15.6 73 73 NNW 6 9 29.92 1013 10 16 0.00 0.03
2:53 am 02:53 Mostly Clear 65 18.3 59 15 81 81 WNW 5 7 29.93 1014 10 16 0.00 0.00
3:53 am 03:53 Clear 61 16.1 56 13.3 84 84 S 9 15 29.91 1013 10 16 0.00 0.00
4:53 am 04:53 Clear 60 15.6 56 13.3 86 86 VRB 3 6 29.93 1013 10 16 0.00 0.00
5:53 am 05:53 Partly Cloudy 60 15.6 56 13.3 86 86 WNW 7 11 29.96 1014 10 16 0.00 0.00
6:53 am 06:53 Sunny 59 15 55 12.8 87 87 S 9 15 29.98 1015 10 16 0.00 0.00
7:53 am 07:53 Sunny 67 19.4 53 11.7 61 61 WSW 8 13 29.98 1015 10 16 0.00 0.00
8:53 am 08:53 Sunny 71 21.7 52 11.1 51 51 WSW 7 11 29.99 1016 10 16 0.00 0.00
9:53 am 09:53 Sunny 75 23.9 50 10 41 41 WNW 7 11 30.00 1016 10 16 0.00 0.00
10:53 am 10:53 Sunny 78 25.6 53 11.7 42 42 VRB 6 9 29.99 1016 10 16 0.00 0.00
11:53 am 11:53 Sunny 83 28.3 51 10.6 33 33 VRB 5 7 29.97 1015 10 16 0.00 0.00
12:53 pm 12:53 Sunny 84 28.9 49 9.4 30 30 ENE 5 7 29.97 1015 10 16 0.00 0.00
1:53 pm 13:53 Sunny 83 28.3 48 8.9 30 30 VRB 3 6 29.95 1014 10 16 0.00 0.00
2:53 pm 14:53 Sunny 87 30.6 46 7.8 24 24 Calm 29.94 1014 10 16 0.00 0.00
3:53 pm 15:53 Sunny 87 30.6 45 7.2 23 23 undefined N/A 29.92 1013 10 16 0.00 0.00
4:53 pm 16:53 Sunny 87 30.6 43 6.1 21 21 VRB 6 9 29.91 1013 10 16 0.00 0.00
5:53 pm 17:53 Sunny 88 31.1 44 6.7 22 22 ENE 6 9 29.90 1012 10 16 0.00 0.00
6:53 pm 18:53 Sunny 86 30 44 6.7 23 23 ESE 15 24 29.88 1012 10 16 0.00 0.00
7:53 pm 19:53 Sunny 84 28.9 46 7.8 27 27 ESE 14 22 29.88 1012 10 16 0.00 0.00
8:53 pm 20:53 Sunny 79 26.1 46 7.8 31 31 E 10 17 29.88 1012 10 16 0.00 0.00
9:53 pm 21:53 Clear 76 24.4 48 8.9 37 37 ESE 9 15 29.88 1012 10 16 0.00 0.00
10:53 pm 22:53 Mostly Cloudy with Nearby Thunderstorms 76 24.4 47 8.3 36 36 WSW 14 22 29.92 1013 10 16 0.00 0.00
11:07 pm 23:07 Cloudy with Thunderstorms 75 23.9 48 8.9 39 39 W 23 37 29.88 1012 10 16 0.00 0.00
11:14 pm 23:14 Cloudy with Strong Thunderstorms 66 19 55 13 68 68 WSW 37 59 29.94 1014 4 6 0.00 0.00
11:30 pm 23:30 Cloudy with Nearby Thunderstorms 64 18 55 13 73 73 NW 17 28 29.97 1015 9 14 0.00 0.00
11:40 pm 23:40 Cloudy with Thunderstorms 64 18 55 13 73 73 W 8 13 29.97 1015 10 16 0.00 0.00
11:53 pm 23:53 Cloudy with Nearby Thunderstorms 65 18.3 57 13.9 76 76 ESE 6 9 29.98 1015 9 14 0.11 2.79

Powered by AerisWeather